Branson, MO

7:48 PM CDT on July 20, 2017 (GMT -0500)
Branson

Weather History for KBBG - January, 2013

Change the Weather History Date:

Wednesday, January 9, 2013

  Actual Average (KHRO) Record (KHRO)
Temperature  
Mean Temperature 47 °F -  
Max Temperature 53 °F 40 °F 76 °F (2002)
Min Temperature 41 °F 22 °F -9 °F (1944)
Degree Days  
Heating Degree Days 18    
Moisture  
Dew Point 41 °F    
Average Humidity 80    
Maximum Humidity 100    
Minimum Humidity 58    
Precipitation  
Precipitation 0.00 in - - ()
Sea Level Pressure  
Sea Level Pressure 30.29 in    
Wind  
Wind Speed 4 mph (East)    
Max Wind Speed 14 mph    
Max Gust Speed 17 mph    
Visibility 9 miles    
Events Rain    
Averages and records for this station are not official NWS values.
T = Trace of Precipitation, MM = Missing Value Source: NWS Daily Summary

Daily Weather History Graph

Daily Weather History Graph

Search for Another Location

Airport or City:

Trip Planner

Search our weather history database for the weather conditions in past years. The results will help you decide how hot, cold, wet, or windy it might be!

Date:

Astronomy

Jan. 09, 2013 Rise Set
Actual Time 7:25 AM CST 5:15 PM CST
Civil Twilight 6:56 AM CST 5:43 PM CST
Nautical Twilight 6:24 AM CST 6:15 PM CST
Astronomical Twilight 5:53 AM CST 6:46 PM CST
Moon 5:04 AM CST (1/9) 3:17 PM CST (1/9)
Length of Visible Light 10h 47m
Length of Day
9h 50m
Waning Crescent, 6% of the Moon is Illuminated
Jan 9
Waning Crescent
Jan 11
New
Jan 18
First Quarter
Jan 26
Full
Feb 3
Last Quarter

Hourly Weather History & Observations

Time (CST) Temp. Windchill Dew Point Humidity Pressure Visibility Wind Dir Wind Speed Gust Speed Precip Events Conditions
12:15 AM 44.6 °F 43.1 °F 44.6 °F 100% 30.23 in 8.0 mi North 3.5 mph - N/A   Overcast
12:35 AM 44.6 °F - 44.6 °F 100% 30.24 in 8.0 mi Calm Calm - N/A   Overcast
12:55 AM 44.6 °F - 44.6 °F 100% 30.23 in 10.0 mi Calm Calm - N/A   Overcast
1:15 AM 44.6 °F - 44.6 °F 100% 30.25 in 9.0 mi Calm Calm - N/A   Overcast
1:35 AM 44.6 °F - 44.6 °F 100% 30.24 in 9.0 mi Calm Calm - N/A   Overcast
1:55 AM 44.6 °F - 44.6 °F 100% 30.24 in 10.0 mi Calm Calm - N/A   Overcast
2:15 AM 44.6 °F 43.1 °F 44.6 °F 100% 30.23 in 7.0 mi SE 3.5 mph - N/A   Mostly Cloudy
2:35 AM 44.6 °F 43.1 °F 41.0 °F 87% 30.24 in 10.0 mi SSE 3.5 mph - N/A   Mostly Cloudy
2:55 AM 44.6 °F - 41.0 °F 87% 30.24 in 10.0 mi Calm Calm - N/A   Overcast
3:15 AM 44.6 °F - 41.0 °F 87% 30.24 in 10.0 mi Calm Calm - N/A   Overcast
3:35 AM 44.6 °F 40.7 °F 44.6 °F 100% 30.26 in 10.0 mi NNW 6.9 mph - N/A   Overcast
3:55 AM 44.6 °F 42.2 °F 44.6 °F 100% 30.26 in 5.0 mi NNW 4.6 mph - N/A   Overcast
4:15 AM 44.6 °F - 44.6 °F 100% 30.25 in 9.0 mi Calm Calm - N/A   Overcast
4:35 AM 42.8 °F - 42.8 °F 100% 30.25 in 9.0 mi Calm Calm - N/A   Overcast
4:55 AM 44.6 °F - 44.6 °F 100% 30.26 in 7.0 mi Calm Calm - N/A   Overcast
5:15 AM 44.6 °F - 44.6 °F 100% 30.27 in 5.0 mi Calm Calm - N/A   Overcast
5:35 AM 44.6 °F - 44.6 °F 100% 30.28 in 5.0 mi Calm Calm - N/A   Overcast
6:45 AM 44.6 °F - 44.6 °F 100% 30.30 in 8.0 mi Calm Calm - N/A   Overcast
7:45 AM 41.0 °F - 41.0 °F 100% 30.34 in 8.0 mi Calm Calm - N/A   Overcast
9:46 AM 46.4 °F 43.5 °F 44.6 °F 93% 30.38 in 8.0 mi ENE 5.8 mph - N/A   Overcast
12:45 PM 50.0 °F - 42.8 °F 76% 30.34 in 10.0 mi NE 4.6 mph - N/A   Overcast
1:55 PM 51.8 °F - 41.0 °F 67% 30.32 in 10.0 mi NE 4.6 mph - N/A   Overcast
3:45 PM 53.6 °F - 39.2 °F 58% 30.33 in 10.0 mi ENE 6.9 mph - N/A   Overcast
4:50 PM 51.8 °F - 37.4 °F 58% 30.32 in 10.0 mi NE 8.1 mph - N/A   Overcast
5:45 PM 50.0 °F - 35.6 °F 58% 30.33 in 10.0 mi ENE 5.8 mph - N/A   Overcast
6:45 PM 50.0 °F - 35.6 °F 58% 30.33 in 10.0 mi East 9.2 mph - N/A   Overcast
7:45 PM 50.0 °F - 37.4 °F 62% 30.34 in 10.0 mi East 8.1 mph - N/A   Overcast
8:15 PM 50.0 °F - 37.4 °F 62% 30.34 in 10.0 mi East 9.2 mph - N/A   Overcast
8:35 PM 50.0 °F - 37.4 °F 62% 30.34 in 10.0 mi East 9.2 mph - N/A   Overcast
8:45 PM 50.0 °F - 37.4 °F 62% 30.34 in 10.0 mi East 9.2 mph - N/A   Overcast
8:55 PM 50.0 °F - 37.4 °F 62% 30.33 in 10.0 mi East 9.2 mph - N/A   Overcast
9:15 PM 50.0 °F - 37.4 °F 62% 30.33 in 10.0 mi East 9.2 mph - N/A   Overcast
9:35 PM 50.0 °F - 37.4 °F 62% 30.32 in 10.0 mi East 8.1 mph - N/A   Overcast
9:55 PM 50.0 °F - 37.4 °F 62% 30.32 in 10.0 mi East 9.2 mph - N/A   Overcast
10:15 PM 50.0 °F - 37.4 °F 62% 30.32 in 10.0 mi East 8.1 mph - N/A   Overcast
10:35 PM 50.0 °F - 37.4 °F 62% 30.32 in 10.0 mi East 11.5 mph - N/A   Overcast
10:55 PM 48.2 °F - 37.4 °F 66% 30.31 in 10.0 mi East 11.5 mph - N/A Rain Light Rain
11:15 PM 48.2 °F - 37.4 °F 66% 30.30 in 10.0 mi East 11.5 mph - N/A Rain Light Rain
11:35 PM 48.2 °F - 37.4 °F 66% 30.29 in 10.0 mi East 11.5 mph - N/A   Overcast
11:55 PM 48.2 °F - 35.6 °F 62% 30.29 in 10.0 mi East 13.8 mph 17.3 mph N/A   Overcast